Time,TemperatureF,DewpointF,PressureIn,WindDirection,WindDirectionDegrees,WindSpeedMPH,WindSpeedGustMPH,Humidity,HourlyPrecipIn,Conditions,Clouds,dailyrainin,SoftwareType,DateUTC
2013-10-24 00:01:00,60.7,49.7,29.89,NNW,347,23.0,24.0,67,0.00,,,0.00,Wunderground v.1.15,2013-10-24 04:01:00,
2013-10-24 00:02:00,60.6,49.6,29.90,NNW,348,19.0,24.0,67,0.00,,,0.00,Wunderground v.1.15,2013-10-24 04:02:00,
2013-10-24 00:04:00,60.7,50.5,29.89,North,351,16.0,24.0,69,0.00,,,0.00,Wunderground v.1.15,2013-10-24 04:04:00,
2013-10-24 00:07:00,60.8,51.7,29.89,NNW,347,16.0,24.0,72,0.00,,,0.00,Wunderground v.1.15,2013-10-24 04:07:00,
2013-10-24 00:08:00,60.7,50.9,29.89,NNW,348,19.0,24.0,70,0.00,,,0.00,Wunderground v.1.15,2013-10-24 04:08:00,
2013-10-24 00:13:00,60.4,52.1,29.89,North,5,23.0,23.0,74,0.00,,,0.00,Wunderground v.1.15,2013-10-24 04:13:00,
2013-10-24 00:18:00,59.8,50.0,29.89,North,355,25.0,29.0,70,0.00,,,0.00,Wunderground v.1.15,2013-10-24 04:18:00,
2013-10-24 00:21:00,59.7,49.9,29.90,North,360,24.0,24.0,70,0.00,,,0.00,Wunderground v.1.15,2013-10-24 04:21:00,
2013-10-24 00:26:00,59.6,48.6,29.90,North,355,24.0,25.0,67,0.00,,,0.00,Wunderground v.1.15,2013-10-24 04:26:00,
2013-10-24 00:32:00,59.5,48.9,29.90,North,355,17.0,24.0,68,0.00,,,0.00,Wunderground v.1.15,2013-10-24 04:32:00,
2013-10-24 00:38:00,59.4,48.4,29.90,North,360,26.0,31.0,67,0.00,,,0.00,Wunderground v.1.15,2013-10-24 04:38:00,
2013-10-24 00:43:00,59.2,47.8,29.91,North,5,19.0,23.0,66,0.00,,,0.00,Wunderground v.1.15,2013-10-24 04:43:00,
2013-10-24 00:48:00,59.4,49.2,29.91,North,360,27.0,27.0,69,0.00,,,0.00,Wunderground v.1.15,2013-10-24 04:48:00,
2013-10-24 00:53:00,58.9,46.7,29.91,North,350,24.0,26.0,64,0.00,,,0.00,Wunderground v.1.15,2013-10-24 04:53:00,
2013-10-24 00:58:00,58.6,47.7,29.92,North,9,22.0,30.0,67,0.00,,,0.00,Wunderground v.1.15,2013-10-24 04:58:00,
2013-10-24 01:03:00,58.3,47.0,29.92,North,360,28.0,28.0,66,0.00,,,0.00,Wunderground v.1.15,2013-10-24 05:03:00,
2013-10-24 01:08:00,58.1,47.2,29.91,North,5,25.0,28.0,67,0.00,,,0.00,Wunderground v.1.15,2013-10-24 05:08:00,
2013-10-24 01:13:00,58.1,47.6,29.92,North,360,19.0,27.0,68,0.00,,,0.00,Wunderground v.1.15,2013-10-24 05:13:00,
2013-10-24 01:18:00,58.0,47.1,29.92,North,5,23.0,28.0,67,0.00,,,0.00,Wunderground v.1.15,2013-10-24 05:18:00,
2013-10-24 01:23:00,57.8,48.8,29.92,North,360,17.0,22.0,72,0.00,,,0.00,Wunderground v.1.15,2013-10-24 05:23:00,
2013-10-24 01:28:00,57.5,47.4,29.92,North,360,18.0,28.0,69,0.00,,,0.00,Wunderground v.1.15,2013-10-24 05:28:00,
2013-10-24 01:34:00,57.1,46.6,29.92,North,355,25.0,26.0,68,0.00,,,0.00,Wunderground v.1.15,2013-10-24 05:34:00,
2013-10-24 01:39:00,56.9,46.4,29.92,North,349,25.0,27.0,68,0.00,,,0.00,Wunderground v.1.15,2013-10-24 05:39:00,
2013-10-24 01:44:00,56.6,46.2,29.93,North,355,19.0,25.0,68,0.00,,,0.00,Wunderground v.1.15,2013-10-24 05:44:00,
2013-10-24 01:49:00,56.5,46.8,29.93,North,9,22.0,29.0,70,0.00,,,0.00,Wunderground v.1.15,2013-10-24 05:49:00,
2013-10-24 01:54:00,56.4,46.4,29.94,North,355,17.0,25.0,69,0.00,,,0.00,Wunderground v.1.15,2013-10-24 05:54:00,
2013-10-24 02:00:00,56.4,47.1,29.94,North,355,24.0,24.0,71,0.00,,,0.00,Wunderground v.1.15,2013-10-24 06:00:00,
2013-10-24 02:05:00,56.1,47.2,29.94,North,5,22.0,28.0,72,0.00,,,0.00,Wunderground v.1.15,2013-10-24 06:05:00,
2013-10-24 02:10:00,56.0,47.1,29.93,NNE,17,16.0,22.0,72,0.00,,,0.00,Wunderground v.1.15,2013-10-24 06:10:00,
2013-10-24 02:15:00,55.7,46.4,29.93,North,5,18.0,30.0,71,0.00,,,0.00,Wunderground v.1.15,2013-10-24 06:15:00,
2013-10-24 02:20:00,55.6,47.4,29.93,North,355,22.0,25.0,74,0.00,,,0.00,Wunderground v.1.15,2013-10-24 06:20:00,
2013-10-24 02:25:00,55.5,47.0,29.94,North,5,19.0,27.0,73,0.00,,,0.00,Wunderground v.1.15,2013-10-24 06:25:00,
2013-10-24 02:30:00,55.3,46.8,29.93,North,349,17.0,22.0,73,0.00,,,0.00,Wunderground v.1.15,2013-10-24 06:30:00,
2013-10-24 02:35:00,55.4,47.2,29.93,North,5,22.0,26.0,74,0.00,,,0.00,Wunderground v.1.15,2013-10-24 06:35:00,
2013-10-24 02:40:00,55.2,46.7,29.93,NNE,14,20.0,24.0,73,0.00,,,0.00,Wunderground v.1.15,2013-10-24 06:40:00,
2013-10-24 02:45:00,55.2,47.8,29.94,North,5,22.0,26.0,76,0.00,,,0.00,Wunderground v.1.15,2013-10-24 06:45:00,
2013-10-24 02:50:00,54.8,46.3,29.94,North,5,20.0,24.0,73,0.00,,,0.00,Wunderground v.1.15,2013-10-24 06:50:00,
2013-10-24 02:55:00,54.8,47.0,29.93,North,360,22.0,25.0,75,0.00,,,0.00,Wunderground v.1.15,2013-10-24 06:55:00,
2013-10-24 03:00:00,54.7,46.9,29.93,North,5,20.0,26.0,75,0.00,,,0.00,Wunderground v.1.15,2013-10-24 07:00:00,
2013-10-24 03:05:00,54.4,46.6,29.94,North,355,24.0,26.0,75,0.00,,,0.00,Wunderground v.1.15,2013-10-24 07:05:00,
2013-10-24 03:10:00,54.4,46.6,29.94,North,355,19.0,24.0,75,0.00,,,0.00,Wunderground v.1.15,2013-10-24 07:10:00,
2013-10-24 03:15:00,54.3,46.9,29.94,North,5,25.0,25.0,76,0.00,,,0.00,Wunderground v.1.15,2013-10-24 07:15:00,
2013-10-24 03:20:00,54.4,47.3,29.94,North,5,24.0,24.0,77,0.00,,,0.00,Wunderground v.1.15,2013-10-24 07:20:00,
2013-10-24 03:25:00,54.2,46.8,29.94,NNE,12,22.0,26.0,76,0.00,,,0.00,Wunderground v.1.15,2013-10-24 07:25:00,
2013-10-24 03:30:00,54.0,46.6,29.94,NNE,13,23.0,23.0,76,0.00,,,0.00,Wunderground v.1.15,2013-10-24 07:30:00,
2013-10-24 03:35:00,53.8,46.1,29.94,North,5,19.0,25.0,75,0.00,,,0.00,Wunderground v.1.15,2013-10-24 07:35:00,
2013-10-24 03:40:00,54.1,47.4,29.95,North,360,18.0,21.0,78,0.00,,,0.00,Wunderground v.1.15,2013-10-24 07:40:00,
2013-10-24 03:45:00,54.0,47.3,29.95,North,5,20.0,23.0,78,0.00,,,0.00,Wunderground v.1.15,2013-10-24 07:45:00,
2013-10-24 03:50:00,53.7,46.7,29.95,NNE,13,18.0,19.0,77,0.00,,,0.00,Wunderground v.1.15,2013-10-24 07:50:00,
2013-10-24 03:55:00,53.7,46.7,29.95,North,5,15.0,23.0,77,0.00,,,0.00,Wunderground v.1.15,2013-10-24 07:55:00,
2013-10-24 04:00:00,53.7,46.7,29.95,North,5,20.0,20.0,77,0.00,,,0.00,Wunderground v.1.15,2013-10-24 08:00:00,
2013-10-24 04:06:00,53.4,46.4,29.96,North,360,20.0,25.0,77,0.00,,,0.00,Wunderground v.1.15,2013-10-24 08:06:00,
2013-10-24 04:11:00,53.3,46.3,29.96,North,5,17.0,22.0,77,0.00,,,0.00,Wunderground v.1.15,2013-10-24 08:11:00,
2013-10-24 04:16:00,53.3,46.3,29.96,North,360,18.0,24.0,77,0.00,,,0.00,Wunderground v.1.15,2013-10-24 08:16:00,
2013-10-24 04:21:00,53.2,46.2,29.96,North,360,18.0,20.0,77,0.00,,,0.00,Wunderground v.1.15,2013-10-24 08:21:00,
2013-10-24 04:26:00,53.2,46.5,29.96,North,5,18.0,20.0,78,0.00,,,0.00,Wunderground v.1.15,2013-10-24 08:26:00,
2013-10-24 04:31:00,53.2,46.2,29.96,NNE,19,15.0,19.0,77,0.00,,,0.00,Wunderground v.1.15,2013-10-24 08:31:00,
2013-10-24 04:36:00,53.2,46.9,29.96,NNE,16,16.0,20.0,79,0.00,,,0.00,Wunderground v.1.15,2013-10-24 08:36:00,
2013-10-24 04:41:00,53.0,46.0,29.97,North,5,15.0,19.0,77,0.00,,,0.00,Wunderground v.1.15,2013-10-24 08:41:00,
2013-10-24 04:46:00,53.0,46.3,29.97,NNE,18,15.0,21.0,78,0.00,,,0.00,Wunderground v.1.15,2013-10-24 08:46:00,
2013-10-24 04:51:00,53.0,46.3,29.97,NNE,17,18.0,21.0,78,0.00,,,0.00,Wunderground v.1.15,2013-10-24 08:51:00,
2013-10-24 04:56:00,53.0,46.7,29.97,North,5,13.0,21.0,79,0.00,,,0.00,Wunderground v.1.15,2013-10-24 08:56:00,
2013-10-24 05:01:00,52.9,46.6,29.97,North,360,20.0,20.0,79,0.00,,,0.00,Wunderground v.1.15,2013-10-24 09:01:00,
2013-10-24 05:06:00,53.1,47.1,29.97,NNE,17,19.0,21.0,80,0.00,,,0.00,Wunderground v.1.15,2013-10-24 09:06:00,
2013-10-24 05:11:00,52.8,46.5,29.98,NNE,13,16.0,18.0,79,0.00,,,0.00,Wunderground v.1.15,2013-10-24 09:11:00,
2013-10-24 05:16:00,52.9,46.9,29.98,North,9,15.0,21.0,80,0.00,,,0.00,Wunderground v.1.15,2013-10-24 09:16:00,
2013-10-24 05:22:00,52.7,46.4,29.99,North,5,15.0,19.0,79,0.00,,,0.00,Wunderground v.1.15,2013-10-24 09:22:00,
2013-10-24 05:27:00,52.6,46.3,29.99,North,10,14.0,20.0,79,0.00,,,0.00,Wunderground v.1.15,2013-10-24 09:27:00,
2013-10-24 05:32:00,52.5,46.2,29.99,North,5,16.0,18.0,79,0.00,,,0.00,Wunderground v.1.15,2013-10-24 09:32:00,
2013-10-24 05:37:00,52.8,46.5,30.00,North,360,16.0,20.0,79,0.00,,,0.00,Wunderground v.1.15,2013-10-24 09:37:00,
2013-10-24 05:42:00,52.8,46.5,30.00,North,360,17.0,20.0,79,0.00,,,0.00,Wunderground v.1.15,2013-10-24 09:42:00,
2013-10-24 05:47:00,52.7,46.4,30.01,North,11,14.0,21.0,79,0.00,,,0.00,Wunderground v.1.15,2013-10-24 09:47:00,
2013-10-24 05:52:00,52.8,46.5,30.01,North,5,19.0,20.0,79,0.00,,,0.00,Wunderground v.1.15,2013-10-24 09:52:00,
2013-10-24 05:57:00,52.6,46.6,30.01,North,5,15.0,20.0,80,0.00,,,0.00,Wunderground v.1.15,2013-10-24 09:57:00,
2013-10-24 06:02:00,52.5,46.5,30.01,North,5,14.0,21.0,80,0.00,,,0.00,Wunderground v.1.15,2013-10-24 10:02:00,
2013-10-24 06:07:00,52.7,46.7,30.02,North,351,16.0,21.0,80,0.00,,,0.00,Wunderground v.1.15,2013-10-24 10:07:00,
2013-10-24 06:12:00,52.4,46.4,30.02,North,9,15.0,20.0,80,0.00,,,0.00,Wunderground v.1.15,2013-10-24 10:12:00,
2013-10-24 06:17:00,52.6,46.6,30.02,North,355,16.0,21.0,80,0.00,,,0.00,Wunderground v.1.15,2013-10-24 10:17:00,
2013-10-24 06:22:00,52.6,46.6,30.02,North,5,17.0,22.0,80,0.00,,,0.00,Wunderground v.1.15,2013-10-24 10:22:00,
2013-10-24 06:27:00,52.4,46.1,30.02,North,5,17.0,22.0,79,0.00,,,0.00,Wunderground v.1.15,2013-10-24 10:27:00,
2013-10-24 06:32:00,52.2,45.5,30.02,North,5,19.0,21.0,78,0.00,,,0.00,Wunderground v.1.15,2013-10-24 10:32:00,
2013-10-24 06:37:00,52.2,45.9,30.03,North,9,18.0,21.0,79,0.00,,,0.00,Wunderground v.1.15,2013-10-24 10:37:00,
2013-10-24 06:42:00,52.2,45.2,30.03,North,5,14.0,21.0,77,0.00,,,0.00,Wunderground v.1.15,2013-10-24 10:42:00,
2013-10-24 06:47:00,52.1,45.1,30.03,North,360,17.0,21.0,77,0.00,,,0.00,Wunderground v.1.15,2013-10-24 10:47:00,
2013-10-24 06:52:00,52.2,45.5,30.03,NNE,14,17.0,18.0,78,0.00,,,0.00,Wunderground v.1.15,2013-10-24 10:52:00,
2013-10-24 06:57:00,52.1,45.1,30.03,North,5,15.0,21.0,77,0.00,,,0.00,Wunderground v.1.15,2013-10-24 10:57:00,
2013-10-24 07:02:00,52.1,44.4,30.03,North,5,17.0,22.0,75,0.00,,,0.00,Wunderground v.1.15,2013-10-24 11:02:00,
2013-10-24 07:07:00,52.2,45.2,30.04,North,11,19.0,22.0,77,0.00,,,0.00,Wunderground v.1.15,2013-10-24 11:07:00,
2013-10-24 07:12:00,52.3,44.6,30.04,North,5,17.0,20.0,75,0.00,,,0.00,Wunderground v.1.15,2013-10-24 11:12:00,
2013-10-24 07:17:00,52.4,45.1,30.03,NNE,20,16.0,23.0,76,0.00,,,0.00,Wunderground v.1.15,2013-10-24 11:17:00,
2013-10-24 07:22:00,52.4,44.7,30.03,North,360,21.0,24.0,75,0.00,,,0.00,Wunderground v.1.15,2013-10-24 11:22:00,
2013-10-24 07:27:00,52.1,43.7,30.04,NNE,12,18.0,24.0,73,0.00,,,0.00,Wunderground v.1.15,2013-10-24 11:27:00,
2013-10-24 07:32:00,51.9,43.9,30.04,NNE,12,16.0,21.0,74,0.00,,,0.00,Wunderground v.1.15,2013-10-24 11:32:00,
2013-10-24 07:37:00,51.9,43.9,30.04,NNE,14,16.0,21.0,74,0.00,,,0.00,Wunderground v.1.15,2013-10-24 11:37:00,
2013-10-24 07:42:00,52.1,44.4,30.05,North,5,20.0,21.0,75,0.00,,,0.00,Wunderground v.1.15,2013-10-24 11:42:00,
2013-10-24 07:47:00,51.9,44.6,30.05,North,10,17.0,24.0,76,0.00,,,0.00,Wunderground v.1.15,2013-10-24 11:47:00,
2013-10-24 07:53:00,51.9,44.2,30.05,North,5,16.0,19.0,75,0.00,,,0.00,Wunderground v.1.15,2013-10-24 11:53:00,
2013-10-24 07:58:00,51.6,42.9,30.06,North,11,15.0,21.0,72,0.00,,,0.00,Wunderground v.1.15,2013-10-24 11:58:00,
2013-10-24 08:03:00,51.7,44.0,30.05,North,360,20.0,20.0,75,0.00,,,0.00,Wunderground v.1.15,2013-10-24 12:03:00,
2013-10-24 08:08:00,51.5,43.1,30.06,North,360,19.0,22.0,73,0.00,,,0.00,Wunderground v.1.15,2013-10-24 12:08:00,
2013-10-24 08:13:00,51.5,43.1,30.06,NNE,15,17.0,23.0,73,0.00,,,0.00,Wunderground v.1.15,2013-10-24 12:13:00,
2013-10-24 08:18:00,51.7,44.4,30.06,North,5,18.0,23.0,76,0.00,,,0.00,Wunderground v.1.15,2013-10-24 12:18:00,
2013-10-24 08:23:00,51.6,43.9,30.07,North,5,21.0,21.0,75,0.00,,,0.00,Wunderground v.1.15,2013-10-24 12:23:00,
2013-10-24 08:28:00,51.5,44.5,30.07,NNE,15,17.0,24.0,77,0.00,,,0.00,Wunderground v.1.15,2013-10-24 12:28:00,
2013-10-24 08:33:00,51.5,44.2,30.07,NNE,12,17.0,20.0,76,0.00,,,0.00,Wunderground v.1.15,2013-10-24 12:33:00,
2013-10-24 08:38:00,51.5,44.9,30.08,NNE,17,18.0,22.0,78,0.00,,,0.00,Wunderground v.1.15,2013-10-24 12:38:00,
2013-10-24 08:43:00,51.3,43.6,30.08,North,9,14.0,22.0,75,0.00,,,0.00,Wunderground v.1.15,2013-10-24 12:43:00,
2013-10-24 08:48:00,51.2,44.6,30.08,NNE,17,17.0,22.0,78,0.00,,,0.00,Wunderground v.1.15,2013-10-24 12:48:00,
2013-10-24 08:53:00,51.3,44.0,30.08,North,355,18.0,19.0,76,0.00,,,0.00,Wunderground v.1.15,2013-10-24 12:53:00,
2013-10-24 08:58:00,51.4,44.8,30.08,North,5,16.0,19.0,78,0.00,,,0.00,Wunderground v.1.15,2013-10-24 12:58:00,
2013-10-24 09:03:00,51.1,44.5,30.09,NNE,24,17.0,21.0,78,0.00,,,0.00,Wunderground v.1.15,2013-10-24 13:03:00,
2013-10-24 09:08:00,51.2,44.9,30.08,NNE,16,17.0,22.0,79,0.00,,,0.00,Wunderground v.1.15,2013-10-24 13:08:00,
2013-10-24 09:13:00,51.2,44.6,30.08,North,5,17.0,18.0,78,0.00,,,0.00,Wunderground v.1.15,2013-10-24 13:13:00,
2013-10-24 09:18:00,51.0,44.0,30.08,NNE,14,15.0,18.0,77,0.00,,,0.00,Wunderground v.1.15,2013-10-24 13:18:00,
2013-10-24 09:23:00,51.0,44.4,30.08,North,5,14.0,18.0,78,0.00,,,0.00,Wunderground v.1.15,2013-10-24 13:23:00,
2013-10-24 09:28:00,51.2,44.6,30.09,NNE,18,16.0,18.0,78,0.00,,,0.00,Wunderground v.1.15,2013-10-24 13:28:00,
2013-10-24 09:33:00,51.3,44.7,30.08,NNE,26,13.0,16.0,78,0.00,,,0.00,Wunderground v.1.15,2013-10-24 13:33:00,
2013-10-24 09:38:00,51.5,45.2,30.08,NNE,17,14.0,16.0,79,0.00,,,0.00,Wunderground v.1.15,2013-10-24 13:38:00,
2013-10-24 09:43:00,51.3,44.3,30.08,NNE,13,11.0,16.0,77,0.00,,,0.00,Wunderground v.1.15,2013-10-24 13:43:00,
2013-10-24 09:48:00,51.4,44.4,30.08,NNE,13,16.0,16.0,77,0.00,,,0.00,Wunderground v.1.15,2013-10-24 13:48:00,
2013-10-24 09:53:00,51.4,43.7,30.08,NE,34,10.0,17.0,75,0.00,,,0.00,Wunderground v.1.15,2013-10-24 13:53:00,
2013-10-24 09:58:00,51.7,44.7,30.08,NNE,15,10.0,17.0,77,0.00,,,0.00,Wunderground v.1.15,2013-10-24 13:58:00,
2013-10-24 10:03:00,51.9,44.6,30.08,NNE,19,13.0,15.0,76,0.00,,,0.00,Wunderground v.1.15,2013-10-24 14:03:00,
2013-10-24 10:08:00,52.0,44.3,30.08,NNE,23,12.0,17.0,75,0.00,,,0.00,Wunderground v.1.15,2013-10-24 14:08:00,
2013-10-24 10:13:00,51.9,43.2,30.08,NNE,25,9.0,16.0,72,0.00,,,0.00,Wunderground v.1.15,2013-10-24 14:13:00,
2013-10-24 10:18:00,52.1,43.7,30.08,NNE,15,14.0,16.0,73,0.00,,,0.00,Wunderground v.1.15,2013-10-24 14:18:00,
2013-10-24 10:23:00,52.4,44.4,30.08,NNE,12,12.0,15.0,74,0.00,,,0.00,Wunderground v.1.15,2013-10-24 14:23:00,
2013-10-24 10:28:00,52.4,43.6,30.08,NNE,14,15.0,15.0,72,0.00,,,0.00,Wunderground v.1.15,2013-10-24 14:28:00,
2013-10-24 10:33:00,52.4,43.6,30.09,NNE,13,11.0,17.0,72,0.00,,,0.00,Wunderground v.1.15,2013-10-24 14:33:00,
2013-10-24 10:38:00,52.4,43.3,30.09,NNE,15,11.0,17.0,71,0.00,,,0.00,Wunderground v.1.15,2013-10-24 14:38:00,
2013-10-24 10:43:00,52.4,42.1,30.09,NNE,26,11.0,15.0,68,0.00,,,0.00,Wunderground v.1.15,2013-10-24 14:43:00,
2013-10-24 10:49:00,52.6,43.5,30.09,North,5,10.0,15.0,71,0.00,,,0.00,Wunderground v.1.15,2013-10-24 14:49:00,
2013-10-24 10:54:00,52.5,42.6,30.09,NNE,17,12.0,14.0,69,0.00,,,0.00,Wunderground v.1.15,2013-10-24 14:54:00,
2013-10-24 10:59:00,52.6,43.1,30.09,NNE,19,14.0,16.0,70,0.00,,,0.00,Wunderground v.1.15,2013-10-24 14:59:00,
2013-10-24 11:04:00,52.6,42.7,30.10,NNE,17,10.0,15.0,69,0.00,,,0.00,Wunderground v.1.15,2013-10-24 15:04:00,
2013-10-24 11:09:00,52.7,42.8,30.09,NNE,15,10.0,15.0,69,0.00,,,0.00,Wunderground v.1.15,2013-10-24 15:09:00,
2013-10-24 11:14:00,52.6,42.7,30.09,North,5,10.0,20.0,69,0.00,,,0.00,Wunderground v.1.15,2013-10-24 15:14:00,
2013-10-24 11:19:00,52.7,42.4,30.09,NNE,14,12.0,20.0,68,0.00,,,0.00,Wunderground v.1.15,2013-10-24 15:19:00,
2013-10-24 11:24:00,52.6,41.9,30.09,North,10,9.0,14.0,67,0.00,,,0.00,Wunderground v.1.15,2013-10-24 15:24:00,
2013-10-24 11:29:00,52.6,42.7,30.09,North,355,12.0,14.0,69,0.00,,,0.00,Wunderground v.1.15,2013-10-24 15:29:00,
2013-10-24 11:34:00,52.7,42.0,30.09,NNE,13,9.0,14.0,67,0.00,,,0.00,Wunderground v.1.15,2013-10-24 15:34:00,
2013-10-24 11:39:00,52.8,42.5,30.09,NNE,17,14.0,14.0,68,0.00,,,0.00,Wunderground v.1.15,2013-10-24 15:39:00,
2013-10-24 11:44:00,52.7,41.7,30.09,North,5,9.0,14.0,66,0.00,,,0.00,Wunderground v.1.15,2013-10-24 15:44:00,
2013-10-24 11:49:00,52.9,41.8,30.09,NNE,13,8.0,14.0,66,0.00,,,0.00,Wunderground v.1.15,2013-10-24 15:49:00,
2013-10-24 11:54:00,53.0,42.3,30.08,NNE,13,11.0,12.0,67,0.00,,,0.00,Wunderground v.1.15,2013-10-24 15:54:00,
2013-10-24 11:59:00,53.0,41.9,30.08,North,5,10.0,13.0,66,0.00,,,0.00,Wunderground v.1.15,2013-10-24 15:59:00,
2013-10-24 12:04:00,53.1,42.4,30.08,NNE,24,10.0,13.0,67,0.00,,,0.00,Wunderground v.1.15,2013-10-24 16:04:00,
2013-10-24 12:10:00,53.2,40.9,30.08,North,10,10.0,15.0,63,0.00,,,0.00,Wunderground v.1.15,2013-10-24 16:10:00,
2013-10-24 12:15:00,53.1,40.4,30.08,NNE,16,5.0,13.0,62,0.00,,,0.00,Wunderground v.1.15,2013-10-24 16:15:00,
2013-10-24 12:20:00,53.2,40.9,30.08,NNE,15,10.0,14.0,63,0.00,,,0.00,Wunderground v.1.15,2013-10-24 16:20:00,
2013-10-24 12:25:00,53.4,41.9,30.07,North,9,7.0,13.0,65,0.00,,,0.00,Wunderground v.1.15,2013-10-24 16:25:00,
2013-10-24 12:30:00,53.4,41.1,30.07,NNE,14,13.0,13.0,63,0.00,,,0.00,Wunderground v.1.15,2013-10-24 16:30:00,
2013-10-24 12:35:00,53.5,41.2,30.07,North,360,8.0,12.0,63,0.00,,,0.00,Wunderground v.1.15,2013-10-24 16:35:00,
2013-10-24 12:40:00,53.5,40.8,30.07,North,5,5.0,12.0,62,0.00,,,0.00,Wunderground v.1.15,2013-10-24 16:40:00,
2013-10-24 12:45:00,53.7,42.2,30.07,NNW,348,9.0,10.0,65,0.00,,,0.00,Wunderground v.1.15,2013-10-24 16:45:00,
2013-10-24 12:50:00,53.7,42.2,30.07,North,5,10.0,11.0,65,0.00,,,0.00,Wunderground v.1.15,2013-10-24 16:50:00,
2013-10-24 12:55:00,53.5,40.8,30.07,North,360,10.0,13.0,62,0.00,,,0.00,Wunderground v.1.15,2013-10-24 16:55:00,
2013-10-24 13:00:00,53.7,41.8,30.06,NNW,340,5.0,13.0,64,0.00,,,0.00,Wunderground v.1.15,2013-10-24 17:00:00,
2013-10-24 13:05:00,53.6,40.0,30.06,North,350,8.0,11.0,60,0.00,,,0.00,Wunderground v.1.15,2013-10-24 17:05:00,
2013-10-24 13:10:00,54.0,40.8,30.06,NNW,328,6.0,7.0,61,0.00,,,0.00,Wunderground v.1.15,2013-10-24 17:10:00,
2013-10-24 13:15:00,54.1,40.9,30.05,NNW,330,10.0,13.0,61,0.00,,,0.00,Wunderground v.1.15,2013-10-24 17:15:00,
2013-10-24 13:20:00,54.1,40.9,30.05,NW,314,8.0,9.0,61,0.00,,,0.00,Wunderground v.1.15,2013-10-24 17:20:00,
2013-10-24 13:25:00,54.4,41.6,30.05,NW,323,9.0,12.0,62,0.00,,,0.00,Wunderground v.1.15,2013-10-24 17:25:00,
2013-10-24 13:30:00,54.4,41.6,30.05,NW,314,9.0,11.0,62,0.00,,,0.00,Wunderground v.1.15,2013-10-24 17:30:00,
2013-10-24 13:35:00,54.4,40.8,30.05,NW,304,10.0,11.0,60,0.00,,,0.00,Wunderground v.1.15,2013-10-24 17:35:00,
2013-10-24 13:40:00,54.5,40.9,30.05,NW,308,8.0,11.0,60,0.00,,,0.00,Wunderground v.1.15,2013-10-24 17:40:00,
2013-10-24 13:45:00,54.6,40.6,30.05,NW,315,6.0,11.0,59,0.00,,,0.00,Wunderground v.1.15,2013-10-24 17:45:00,
2013-10-24 13:50:00,54.9,41.7,30.05,WNW,291,5.0,8.0,61,0.00,,,0.00,Wunderground v.1.15,2013-10-24 17:50:00,
2013-10-24 13:55:00,54.9,40.8,30.05,WNW,303,9.0,12.0,59,0.00,,,0.00,Wunderground v.1.15,2013-10-24 17:55:00,
2013-10-24 14:00:00,54.9,41.3,30.05,NW,313,9.0,11.0,60,0.00,,,0.00,Wunderground v.1.15,2013-10-24 18:00:00,
2013-10-24 14:05:00,54.8,41.6,30.05,NW,323,6.0,11.0,61,0.00,,,0.00,Wunderground v.1.15,2013-10-24 18:05:00,
2013-10-24 14:10:00,54.9,41.7,30.05,NW,315,6.0,14.0,61,0.00,,,0.00,Wunderground v.1.15,2013-10-24 18:10:00,
2013-10-24 14:15:00,55.0,41.4,30.05,NW,304,8.0,15.0,60,0.00,,,0.00,Wunderground v.1.15,2013-10-24 18:15:00,
2013-10-24 14:20:00,54.9,41.7,30.05,NW,317,10.0,11.0,61,0.00,,,0.00,Wunderground v.1.15,2013-10-24 18:20:00,
2013-10-24 14:25:00,54.8,41.6,30.05,NNW,327,6.0,13.0,61,0.00,,,0.00,Wunderground v.1.15,2013-10-24 18:25:00,
2013-10-24 14:31:00,54.7,42.3,30.05,NW,321,6.0,11.0,63,0.00,,,0.00,Wunderground v.1.15,2013-10-24 18:31:00,
2013-10-24 14:36:00,55.1,41.5,30.05,WNW,288,9.0,13.0,60,0.00,,,0.00,Wunderground v.1.15,2013-10-24 18:36:00,
2013-10-24 14:41:00,55.0,40.9,30.04,NW,309,7.0,9.0,59,0.00,,,0.00,Wunderground v.1.15,2013-10-24 18:41:00,
2013-10-24 14:46:00,55.1,41.9,30.04,NW,311,8.0,10.0,61,0.00,,,0.00,Wunderground v.1.15,2013-10-24 18:46:00,
2013-10-24 14:51:00,55.2,42.0,30.04,NW,313,10.0,10.0,61,0.00,,,0.00,Wunderground v.1.15,2013-10-24 18:51:00,
2013-10-24 14:56:00,55.5,41.8,30.04,WNW,298,5.0,13.0,60,0.00,,,0.00,Wunderground v.1.15,2013-10-24 18:56:00,
2013-10-24 15:01:00,55.6,41.0,30.04,NW,309,7.0,10.0,58,0.00,,,0.00,Wunderground v.1.15,2013-10-24 19:01:00,
2013-10-24 15:06:00,55.7,41.6,30.04,NW,306,9.0,11.0,59,0.00,,,0.00,Wunderground v.1.15,2013-10-24 19:06:00,
2013-10-24 15:11:00,55.5,41.4,30.04,NW,319,6.0,9.0,59,0.00,,,0.00,Wunderground v.1.15,2013-10-24 19:11:00,
2013-10-24 15:16:00,55.6,41.9,30.04,NW,314,9.0,11.0,60,0.00,,,0.00,Wunderground v.1.15,2013-10-24 19:16:00,
2013-10-24 15:21:00,55.9,42.2,30.04,NW,304,5.0,10.0,60,0.00,,,0.00,Wunderground v.1.15,2013-10-24 19:21:00,
2013-10-24 15:26:00,56.1,42.4,30.04,NW,304,9.0,12.0,60,0.00,,,0.00,Wunderground v.1.15,2013-10-24 19:26:00,
2013-10-24 15:31:00,56.2,42.1,30.04,NW,304,3.0,8.0,59,0.00,,,0.00,Wunderground v.1.15,2013-10-24 19:31:00,
2013-10-24 15:36:00,56.2,42.5,30.04,NW,307,7.0,12.0,60,0.00,,,0.00,Wunderground v.1.15,2013-10-24 19:36:00,
2013-10-24 15:41:00,56.3,42.1,30.03,NW,305,5.0,7.0,59,0.00,,,0.00,Wunderground v.1.15,2013-10-24 19:41:00,
2013-10-24 15:46:00,56.3,42.1,30.03,WNW,303,8.0,10.0,59,0.00,,,0.00,Wunderground v.1.15,2013-10-24 19:46:00,
2013-10-24 15:51:00,56.6,42.9,30.04,WNW,300,7.0,9.0,60,0.00,,,0.00,Wunderground v.1.15,2013-10-24 19:51:00,
2013-10-24 15:56:00,56.6,42.4,30.03,WNW,298,7.0,10.0,59,0.00,,,0.00,Wunderground v.1.15,2013-10-24 19:56:00,
2013-10-24 16:01:00,56.9,43.2,30.04,WNW,300,2.0,9.0,60,0.00,,,0.00,Wunderground v.1.15,2013-10-24 20:01:00,
2013-10-24 16:07:00,57.2,43.0,30.04,WNW,296,4.0,10.0,59,0.00,,,0.00,Wunderground v.1.15,2013-10-24 20:07:00,
2013-10-24 16:12:00,57.5,41.4,30.04,WNW,282,6.0,10.0,55,0.00,,,0.00,Wunderground v.1.15,2013-10-24 20:12:00,
2013-10-24 16:17:00,57.4,42.3,30.04,West,280,9.0,10.0,57,0.00,,,0.00,Wunderground v.1.15,2013-10-24 20:17:00,
2013-10-24 16:22:00,57.4,41.8,30.05,West,280,7.0,10.0,56,0.00,,,0.00,Wunderground v.1.15,2013-10-24 20:22:00,
2013-10-24 16:27:00,57.5,41.9,30.05,West,279,6.0,10.0,56,0.00,,,0.00,Wunderground v.1.15,2013-10-24 20:27:00,
2013-10-24 16:32:00,57.7,42.6,30.05,West,279,6.0,10.0,57,0.00,,,0.00,Wunderground v.1.15,2013-10-24 20:32:00,
2013-10-24 16:37:00,57.9,43.7,30.05,West,280,6.0,10.0,59,0.00,,,0.00,Wunderground v.1.15,2013-10-24 20:37:00,
2013-10-24 16:42:00,58.0,42.8,30.05,West,281,8.0,9.0,57,0.00,,,0.00,Wunderground v.1.15,2013-10-24 20:42:00,
2013-10-24 16:47:00,58.2,43.0,30.05,WNW,294,7.0,10.0,57,0.00,,,0.00,Wunderground v.1.15,2013-10-24 20:47:00,
2013-10-24 16:52:00,58.1,42.5,30.05,West,276,4.0,12.0,56,0.00,,,0.00,Wunderground v.1.15,2013-10-24 20:52:00,
2013-10-24 16:56:00,58.1,42.9,30.04,West,275,3.0,12.0,57,0.00,,,0.00,Wunderground v.1.15,2013-10-24 20:56:00,
2013-10-24 17:02:00,58.4,43.7,30.05,West,275,6.0,6.0,58,0.00,,,0.00,Wunderground v.1.15,2013-10-24 21:02:00,
2013-10-24 17:07:00,58.4,42.8,30.04,West,275,3.0,6.0,56,0.00,,,0.00,Wunderground v.1.15,2013-10-24 21:07:00,
2013-10-24 17:11:00,58.7,44.4,30.04,WNW,291,4.0,10.0,59,0.00,,,0.00,Wunderground v.1.15,2013-10-24 21:11:00,
2013-10-24 17:16:00,58.8,43.1,30.04,WNW,291,5.0,10.0,56,0.00,,,0.00,Wunderground v.1.15,2013-10-24 21:16:00,
2013-10-24 17:22:00,58.7,42.6,30.05,WNW,292,3.0,5.0,55,0.00,,,0.00,Wunderground v.1.15,2013-10-24 21:22:00,
2013-10-24 17:27:00,58.8,42.7,30.05,WNW,294,7.0,11.0,55,0.00,,,0.00,Wunderground v.1.15,2013-10-24 21:27:00,
2013-10-24 17:32:00,58.7,43.0,30.05,NW,314,8.0,9.0,56,0.00,,,0.00,Wunderground v.1.15,2013-10-24 21:32:00,
2013-10-24 17:37:00,58.2,43.5,30.06,North,350,9.0,11.0,58,0.00,,,0.00,Wunderground v.1.15,2013-10-24 21:37:00,
2013-10-24 17:42:00,58.0,43.3,30.06,North,355,5.0,9.0,58,0.00,,,0.00,Wunderground v.1.15,2013-10-24 21:42:00,
2013-10-24 17:47:00,57.8,44.4,30.06,North,355,8.0,9.0,61,0.00,,,0.00,Wunderground v.1.15,2013-10-24 21:47:00,
2013-10-24 17:52:00,57.6,44.2,30.06,North,355,5.0,6.0,61,0.00,,,0.00,Wunderground v.1.15,2013-10-24 21:52:00,
2013-10-24 17:57:00,57.4,44.5,30.06,North,355,6.0,8.0,62,0.00,,,0.00,Wunderground v.1.15,2013-10-24 21:57:00,
2013-10-24 18:02:00,57.5,45.0,30.06,North,355,5.0,6.0,63,0.00,,,0.00,Wunderground v.1.15,2013-10-24 22:02:00,
2013-10-24 18:07:00,57.5,44.1,30.07,North,355,5.0,6.0,61,0.00,,,0.00,Wunderground v.1.15,2013-10-24 22:07:00,
2013-10-24 18:12:00,57.5,44.1,30.07,North,355,4.0,6.0,61,0.00,,,0.00,Wunderground v.1.15,2013-10-24 22:12:00,
2013-10-24 18:17:00,57.4,43.6,30.07,North,355,4.0,6.0,60,0.00,,,0.00,Wunderground v.1.15,2013-10-24 22:17:00,
2013-10-24 18:22:00,57.3,43.5,30.07,North,355,4.0,6.0,60,0.00,,,0.00,Wunderground v.1.15,2013-10-24 22:22:00,
2013-10-24 18:27:00,57.3,42.6,30.07,North,355,6.0,6.0,58,0.00,,,0.00,Wunderground v.1.15,2013-10-24 22:27:00,
2013-10-24 18:32:00,57.5,43.7,30.07,North,355,2.0,5.0,60,0.00,,,0.00,Wunderground v.1.15,2013-10-24 22:32:00,
2013-10-24 18:37:00,57.4,43.6,30.07,North,355,0.0,5.0,60,0.00,,,0.00,Wunderground v.1.15,2013-10-24 22:37:00,
2013-10-24 18:42:00,57.3,44.0,30.08,North,355,0.0,4.0,61,0.00,,,0.00,Wunderground v.1.15,2013-10-24 22:42:00,
2013-10-24 18:47:00,57.3,43.1,30.08,North,355,3.0,5.0,59,0.00,,,0.00,Wunderground v.1.15,2013-10-24 22:47:00,
2013-10-24 18:52:00,57.1,42.0,30.08,North,355,2.0,8.0,57,0.00,,,0.00,Wunderground v.1.15,2013-10-24 22:52:00,
2013-10-24 18:57:00,57.3,43.5,30.08,North,355,4.0,8.0,60,0.00,,,0.00,Wunderground v.1.15,2013-10-24 22:57:00,
2013-10-24 19:02:00,57.8,41.3,30.09,NNW,331,8.0,15.0,54,0.00,,,0.00,Wunderground v.1.15,2013-10-24 23:02:00,
2013-10-24 19:07:00,58.4,41.8,30.08,NW,319,10.0,15.0,54,0.00,,,0.00,Wunderground v.1.15,2013-10-24 23:07:00,
2013-10-24 19:12:00,58.6,41.5,30.09,NNW,338,8.0,12.0,53,0.00,,,0.00,Wunderground v.1.15,2013-10-24 23:12:00,
2013-10-24 19:17:00,58.6,42.5,30.09,NNW,336,8.0,12.0,55,0.00,,,0.00,Wunderground v.1.15,2013-10-24 23:17:00,
2013-10-24 19:22:00,58.6,42.9,30.09,NNW,334,8.0,13.0,56,0.00,,,0.00,Wunderground v.1.15,2013-10-24 23:22:00,
2013-10-24 19:27:00,58.7,42.1,30.09,NNW,328,14.0,17.0,54,0.00,,,0.00,Wunderground v.1.15,2013-10-24 23:27:00,
2013-10-24 19:32:00,58.7,41.1,30.09,NW,324,11.0,12.0,52,0.00,,,0.00,Wunderground v.1.15,2013-10-24 23:32:00,
2013-10-24 19:37:00,58.7,42.1,30.10,NW,314,10.0,13.0,54,0.00,,,0.00,Wunderground v.1.15,2013-10-24 23:37:00,
2013-10-24 19:42:00,58.7,41.6,30.10,NW,325,10.0,10.0,53,0.00,,,0.00,Wunderground v.1.15,2013-10-24 23:42:00,
2013-10-24 19:47:00,58.6,40.5,30.10,NW,319,8.0,14.0,51,0.00,,,0.00,Wunderground v.1.15,2013-10-24 23:47:00,
2013-10-24 19:52:00,58.7,41.6,30.10,NW,318,12.0,13.0,53,0.00,,,0.00,Wunderground v.1.15,2013-10-24 23:52:00,
2013-10-24 19:57:00,58.6,41.5,30.10,NNW,338,13.0,17.0,53,0.00,,,0.00,Wunderground v.1.15,2013-10-24 23:57:00,
2013-10-24 20:02:00,58.6,42.0,30.10,NNW,331,9.0,11.0,54,0.00,,,0.00,Wunderground v.1.15,2013-10-25 00:02:00,
2013-10-24 20:07:00,58.6,42.0,30.10,NW,315,9.0,15.0,54,0.00,,,0.00,Wunderground v.1.15,2013-10-25 00:07:00,
2013-10-24 20:12:00,58.6,41.0,30.10,NW,309,4.0,13.0,52,0.00,,,0.00,Wunderground v.1.15,2013-10-25 00:12:00,
2013-10-24 20:17:00,58.6,42.5,30.10,NNW,327,10.0,14.0,55,0.00,,,0.00,Wunderground v.1.15,2013-10-25 00:17:00,
2013-10-24 20:22:00,58.6,42.5,30.10,NW,321,9.0,11.0,55,0.00,,,0.00,Wunderground v.1.15,2013-10-25 00:22:00,
2013-10-24 20:27:00,58.7,42.6,30.10,NNW,328,12.0,15.0,55,0.00,,,0.00,Wunderground v.1.15,2013-10-25 00:27:00,
2013-10-24 20:32:00,58.6,41.5,30.10,NW,309,13.0,14.0,53,0.00,,,0.00,Wunderground v.1.15,2013-10-25 00:32:00,
2013-10-24 20:37:00,58.6,41.5,30.10,NNW,343,11.0,17.0,53,0.00,,,0.00,Wunderground v.1.15,2013-10-25 00:37:00,
2013-10-24 20:42:00,58.6,42.0,30.10,NW,323,8.0,12.0,54,0.00,,,0.00,Wunderground v.1.15,2013-10-25 00:42:00,
2013-10-24 20:47:00,58.6,42.9,30.10,NNW,333,12.0,13.0,56,0.00,,,0.00,Wunderground v.1.15,2013-10-25 00:47:00,
2013-10-24 20:52:00,58.6,42.9,30.11,NNW,332,6.0,14.0,56,0.00,,,0.00,Wunderground v.1.15,2013-10-25 00:52:00,
2013-10-24 20:57:00,58.6,42.9,30.11,NW,326,8.0,14.0,56,0.00,,,0.00,Wunderground v.1.15,2013-10-25 00:57:00,
2013-10-24 21:02:00,58.6,42.0,30.11,NW,323,9.0,13.0,54,0.00,,,0.00,Wunderground v.1.15,2013-10-25 01:02:00,
2013-10-24 21:07:00,58.5,42.4,30.11,NNW,330,4.0,13.0,55,0.00,,,0.00,Wunderground v.1.15,2013-10-25 01:07:00,
2013-10-24 21:12:00,58.5,42.4,30.11,NW,315,8.0,13.0,55,0.00,,,0.00,Wunderground v.1.15,2013-10-25 01:12:00,
2013-10-24 21:17:00,58.5,41.4,30.11,NW,320,9.0,14.0,53,0.00,,,0.00,Wunderground v.1.15,2013-10-25 01:17:00,
2013-10-24 21:22:00,58.5,42.4,30.11,NNW,330,8.0,12.0,55,0.00,,,0.00,Wunderground v.1.15,2013-10-25 01:22:00,
2013-10-24 21:27:00,58.6,42.5,30.12,NNW,331,11.0,14.0,55,0.00,,,0.00,Wunderground v.1.15,2013-10-25 01:27:00,
2013-10-24 21:32:00,58.6,41.0,30.12,NW,310,5.0,13.0,52,0.00,,,0.00,Wunderground v.1.15,2013-10-25 01:32:00,
2013-10-24 21:37:00,58.5,41.4,30.12,NNW,334,6.0,14.0,53,0.00,,,0.00,Wunderground v.1.15,2013-10-25 01:37:00,
2013-10-24 21:42:00,58.5,41.9,30.12,NNW,332,8.0,15.0,54,0.00,,,0.00,Wunderground v.1.15,2013-10-25 01:42:00,
2013-10-24 21:47:00,58.5,41.9,30.12,NW,319,13.0,15.0,54,0.00,,,0.00,Wunderground v.1.15,2013-10-25 01:47:00,
2013-10-24 21:52:00,58.4,40.3,30.12,NNW,336,6.0,12.0,51,0.00,,,0.00,Wunderground v.1.15,2013-10-25 01:52:00,
2013-10-24 21:57:00,58.4,40.8,30.12,NNW,340,8.0,14.0,52,0.00,,,0.00,Wunderground v.1.15,2013-10-25 01:57:00,
2013-10-24 22:02:00,58.4,42.3,30.13,NNW,338,5.0,13.0,55,0.00,,,0.00,Wunderground v.1.15,2013-10-25 02:02:00,
2013-10-24 22:07:00,58.4,41.3,30.13,NNW,337,13.0,17.0,53,0.00,,,0.00,Wunderground v.1.15,2013-10-25 02:07:00,
2013-10-24 22:12:00,58.4,41.3,30.13,NW,325,14.0,14.0,53,0.00,,,0.00,Wunderground v.1.15,2013-10-25 02:12:00,
2013-10-24 22:18:00,58.5,43.8,30.13,NNW,348,11.0,15.0,58,0.00,,,0.00,Wunderground v.1.15,2013-10-25 02:18:00,
2013-10-24 22:23:00,58.6,44.3,30.13,North,351,10.0,12.0,59,0.00,,,0.00,Wunderground v.1.15,2013-10-25 02:23:00,
2013-10-24 22:28:00,58.5,45.1,30.13,North,355,10.0,12.0,61,0.00,,,0.00,Wunderground v.1.15,2013-10-25 02:28:00,
2013-10-24 22:33:00,58.3,42.7,30.13,NNE,12,9.0,12.0,56,0.00,,,0.00,Wunderground v.1.15,2013-10-25 02:33:00,
2013-10-24 22:38:00,58.3,43.6,30.13,North,9,12.0,12.0,58,0.00,,,0.00,Wunderground v.1.15,2013-10-25 02:38:00,
2013-10-24 22:43:00,58.2,44.8,30.13,North,5,11.0,11.0,61,0.00,,,0.00,Wunderground v.1.15,2013-10-25 02:43:00,
2013-10-24 22:48:00,58.1,43.8,30.13,North,11,13.0,13.0,59,0.00,,,0.00,Wunderground v.1.15,2013-10-25 02:48:00,
2013-10-24 22:53:00,58.0,44.6,30.13,North,9,10.0,12.0,61,0.00,,,0.00,Wunderground v.1.15,2013-10-25 02:53:00,
2013-10-24 22:58:00,57.9,44.1,30.13,North,5,9.0,13.0,60,0.00,,,0.00,Wunderground v.1.15,2013-10-25 02:58:00,
2013-10-24 23:03:00,57.8,43.6,30.13,North,9,7.0,12.0,59,0.00,,,0.00,Wunderground v.1.15,2013-10-25 03:03:00,
2013-10-24 23:08:00,57.8,43.6,30.13,North,9,7.0,12.0,59,0.00,,,0.00,Wunderground v.1.15,2013-10-25 03:08:00,
2013-10-24 23:13:00,57.8,44.0,30.13,North,9,8.0,11.0,60,0.00,,,0.00,Wunderground v.1.15,2013-10-25 03:13:00,
2013-10-24 23:18:00,57.7,43.5,30.13,North,10,9.0,12.0,59,0.00,,,0.00,Wunderground v.1.15,2013-10-25 03:18:00,
2013-10-24 23:23:00,57.8,44.0,30.13,North,10,9.0,9.0,60,0.00,,,0.00,Wunderground v.1.15,2013-10-25 03:23:00,
2013-10-24 23:28:00,57.7,43.5,30.13,North,10,8.0,11.0,59,0.00,,,0.00,Wunderground v.1.15,2013-10-25 03:28:00,
2013-10-24 23:33:00,57.6,44.2,30.12,NNE,12,11.0,11.0,61,0.00,,,0.00,Wunderground v.1.15,2013-10-25 03:33:00,
2013-10-24 23:38:00,57.4,44.5,30.12,NNE,15,9.0,11.0,62,0.00,,,0.00,Wunderground v.1.15,2013-10-25 03:38:00,
2013-10-24 23:43:00,57.3,44.4,30.13,NNE,22,6.0,13.0,62,0.00,,,0.00,Wunderground v.1.15,2013-10-25 03:43:00,
2013-10-24 23:48:00,57.1,43.3,30.13,NNE,22,8.0,13.0,60,0.00,,,0.00,Wunderground v.1.15,2013-10-25 03:48:00,
2013-10-24 23:53:00,57.0,43.2,30.13,NNE,22,5.0,10.0,60,0.00,,,0.00,Wunderground v.1.15,2013-10-25 03:53:00,
2013-10-24 23:58:00,56.9,42.3,30.13,NNE,24,8.0,10.0,58,0.00,,,0.00,Wunderground v.1.15,2013-10-25 03:58:00,